| time (UTC) | temp F | wind direction | speed MPH | gust MPH | rain 1hr in | rain 24hr in | rain mn in | humidity % | barometer mb |
| 20260905025525 | 77 | 166 | 0.0 | 3.0 | 0.00 | 0.01 | 0.01 | 90 | 1011.8 |
| 20260905025004 | 77 | 182 | 1.0 | 3.0 | 0.00 | 0.01 | 0.01 | 90 | 1011.9 |
| 20260905024525 | 77 | 191 | 1.0 | 3.0 | 0.00 | 0.01 | 0.01 | 90 | 1012.0 |
| 20260905024004 | 78 | 198 | 1.0 | 3.0 | 0.00 | 0.01 | 0.01 | 90 | 1011.9 |
| 20260905023505 | 78 | 198 | 1.0 | 3.0 | 0.00 | 0.01 | 0.01 | 89 | 1011.9 |
| 20260905023026 | 78 | 185 | 1.0 | 3.0 | 0.00 | 0.01 | 0.01 | 89 | 1011.9 |
| 20260905022504 | 78 | 188 | 0.0 | 2.0 | 0.00 | 0.01 | 0.01 | 89 | 1011.9 |
| 20260905022026 | 78 | 207 | 0.0 | 2.0 | 0.00 | 0.01 | 0.01 | 89 | 1011.8 |
| 20260905021525 | 78 | 211 | 0.0 | 2.0 | 0.00 | 0.01 | 0.01 | 88 | 1011.7 |
| 20260905021004 | 78 | 207 | 0.0 | 2.0 | 0.00 | 0.01 | 0.01 | 88 | 1011.7 |
| 20260905020526 | 78 | 201 | 0.0 | 2.0 | 0.00 | 0.01 | 0.01 | 88 | 1011.7 |
| 20260905020005 | 78 | 204 | 0.0 | 2.0 | 0.00 | 0.01 | 0.01 | 87 | 1011.7 |
| 20260905015504 | 78 | 0 | 0.0 | 0.0 | 0.00 | 0.01 | 0.01 | 87 | 1011.7 |
| 20260905015004 | 78 | 0 | 0.0 | 0.0 | 0.00 | 0.01 | 0.01 | 87 | 1011.8 |
| 20260905014525 | 78 | 0 | 0.0 | 0.0 | 0.00 | 0.01 | 0.01 | 86 | 1011.7 |
| 20260905014026 | 78 | 0 | 0.0 | 0.0 | 0.00 | 0.01 | 0.01 | 86 | 1011.6 |
| 20260905013525 | 78 | 0 | 0.0 | 0.0 | 0.00 | 0.01 | 0.01 | 86 | 1011.6 |
| 20260905013025 | 78 | 0 | 0.0 | 0.0 | 0.00 | 0.01 | 0.01 | 86 | 1011.5 |
| 20260905012504 | 78 | 0 | 0.0 | 0.0 | 0.00 | 0.01 | 0.01 | 86 | 1011.4 |
| 20260905012004 | 78 | 0 | 0.0 | 0.0 | 0.00 | 0.01 | 0.01 | 85 | 1011.3 |
| 20260905011504 | 79 | 0 | 0.0 | 0.0 | 0.00 | 0.01 | 0.01 | 85 | 1011.1 |
| 20260905011025 | 79 | 0 | 0.0 | 0.0 | 0.00 | 0.01 | 0.01 | 85 | 1011.1 |
| 20260905010504 | 79 | 0 | 0.0 | 0.0 | 0.00 | 0.01 | 0.01 | 84 | 1011.1 |
| 20260905010005 | 79 | 0 | 0.0 | 0.0 | 0.00 | 0.01 | 0.01 | 84 | 1011.0 |
| 20260905005526 | 79 | 0 | 0.0 | 0.0 | 0.00 | 0.01 | 0.01 | 84 | 1011.0 |
| 20260905005025 | 79 | 0 | 0.0 | 0.0 | 0.00 | 0.01 | 0.01 | 84 | 1011.1 |
| 20260905004505 | 80 | 0 | 0.0 | 0.0 | 0.00 | 0.01 | 0.01 | 83 | 1011.1 |
| 20260905004026 | 80 | 0 | 0.0 | 0.0 | 0.00 | 0.01 | 0.01 | 83 | 1011.1 |
| 20260905003525 | 80 | 0 | 0.0 | 0.0 | 0.00 | 0.01 | 0.01 | 82 | 1011.2 |
| 20260905003004 | 80 | 0 | 0.0 | 0.0 | 0.00 | 0.01 | 0.01 | 82 | 1011.1 |
| 20260905002525 | 80 | 0 | 0.0 | 0.0 | 0.00 | 0.01 | 0.01 | 82 | 1011.2 |
| 20260905002004 | 80 | 0 | 0.0 | 0.0 | 0.00 | 0.01 | 0.01 | 81 | 1011.1 |
| 20260905001525 | 81 | 0 | 0.0 | 0.0 | 0.00 | 0.01 | 0.01 | 81 | 1011.1 |
| 20260905001025 | 81 | 0 | 0.0 | 0.0 | 0.00 | 0.01 | 0.01 | 79 | 1011.0 |
| 20260905000504 | 81 | 0 | 0.0 | 0.0 | 0.00 | 0.01 | 0.01 | 79 | 1010.7 |
| 20260905000005 | 81 | 0 | 0.0 | 0.0 | 0.00 | 0.01 | 0.01 | 78 | 1010.9 |
| 20260904235525 | 82 | 0 | 0.0 | 0.0 | 0.00 | 0.01 | 0.01 | 78 | 1011.0 |
| 20260904235026 | 82 | 0 | 0.0 | 0.0 | 0.00 | 0.01 | 0.01 | 77 | 1011.1 |
| 20260904234505 | 82 | 0 | 0.0 | 0.0 | 0.00 | 0.01 | 0.01 | 77 | 1011.0 |
| 20260904234025 | 82 | 0 | 0.0 | 0.0 | 0.00 | 0.01 | 0.01 | 77 | 1011.0 |
| 20260904233525 | 83 | 0 | 0.0 | 0.0 | 0.00 | 0.01 | 0.01 | 76 | 1010.8 |
| 20260904233025 | 83 | 0 | 0.0 | 0.0 | 0.00 | 0.01 | 0.01 | 76 | 1011.0 |
| 20260904232504 | 83 | 0 | 0.0 | 0.0 | 0.00 | 0.01 | 0.01 | 75 | 1011.2 |
| 20260904232025 | 83 | 0 | 0.0 | 0.0 | 0.00 | 0.01 | 0.01 | 75 | 1011.2 |
| 20260904231505 | 84 | 0 | 0.0 | 0.0 | 0.00 | 0.01 | 0.01 | 75 | 1011.2 |
| 20260904231025 | 84 | 0 | 0.0 | 0.0 | 0.00 | 0.01 | 0.01 | 74 | 1011.0 |
| 20260904230504 | 84 | 0 | 0.0 | 0.0 | 0.00 | 0.01 | 0.01 | 73 | 1011.1 |
| 20260904230025 | 84 | 0 | 0.0 | 0.0 | 0.00 | 0.01 | 0.01 | 73 | 1011.0 |
| 20260904225504 | 84 | 0 | 0.0 | 0.0 | 0.00 | 0.01 | 0.01 | 72 | 1011.1 |
| 20260904225004 | 84 | 0 | 0.0 | 0.0 | 0.00 | 0.01 | 0.01 | 72 | 1011.0 |
| 20260904224525 | 84 | 0 | 0.0 | 0.0 | 0.00 | 0.01 | 0.01 | 72 | 1011.0 |
| 20260904224025 | 85 | 243 | 0.0 | 1.0 | 0.00 | 0.01 | 0.01 | 72 | 1010.9 |
| 20260904223525 | 85 | 243 | 0.0 | 1.0 | 0.00 | 0.01 | 0.01 | 72 | 1010.9 |
| 20260904223025 | 85 | 0 | 0.0 | 0.0 | 0.00 | 0.01 | 0.01 | 72 | 1011.0 |
| 20260904222525 | 85 | 0 | 0.0 | 0.0 | 0.00 | 0.01 | 0.01 | 72 | 1011.1 |
| 20260904222025 | 85 | 0 | 0.0 | 0.0 | 0.00 | 0.01 | 0.01 | 71 | 1011.3 |
| 20260904221504 | 85 | 243 | 0.0 | 2.0 | 0.00 | 0.01 | 0.01 | 70 | 1011.3 |
| 20260904221004 | 85 | 224 | 0.0 | 2.0 | 0.00 | 0.01 | 0.01 | 69 | 1011.5 |
| 20260904220505 | 85 | 226 | 0.0 | 2.0 | 0.00 | 0.01 | 0.01 | 68 | 1011.7 |
| 20260904220025 | 85 | 249 | 0.0 | 2.0 | 0.00 | 0.01 | 0.01 | 68 | 1011.7 |
| 20260904215525 | 85 | 262 | 0.0 | 2.0 | 0.00 | 0.01 | 0.01 | 67 | 1011.7 |
| 20260904215004 | 86 | 254 | 0.0 | 3.0 | 0.00 | 0.01 | 0.01 | 67 | 1011.6 |
| 20260904214504 | 86 | 246 | 0.0 | 3.0 | 0.00 | 0.01 | 0.01 | 67 | 1011.7 |
| 20260904214004 | 86 | 238 | 0.0 | 2.0 | 0.00 | 0.01 | 0.01 | 66 | 1011.6 |
| 20260904213526 | 86 | 238 | 0.0 | 2.0 | 0.00 | 0.01 | 0.01 | 65 | 1011.6 |
| 20260904213026 | 86 | 236 | 0.0 | 2.0 | 0.00 | 0.01 | 0.01 | 65 | 1011.7 |
| 20260904212524 | 86 | 256 | 1.0 | 3.0 | 0.00 | 0.01 | 0.01 | 65 | 1011.6 |
| 20260904212004 | 86 | 277 | 1.0 | 4.0 | 0.00 | 0.01 | 0.01 | 65 | 1011.8 |
| 20260904211525 | 86 | 278 | 1.0 | 4.0 | 0.00 | 0.01 | 0.01 | 64 | 1011.8 |
| 20260904211025 | 87 | 289 | 1.0 | 4.0 | 0.00 | 0.01 | 0.01 | 64 | 1011.7 |
| 20260904210525 | 87 | 287 | 1.0 | 3.0 | 0.00 | 0.01 | 0.01 | 63 | 1011.7 |
| 20260904210025 | 87 | 280 | 1.0 | 3.0 | 0.00 | 0.01 | 0.01 | 63 | 1011.8 |
| 20260904205504 | 87 | 285 | 1.0 | 6.0 | 0.00 | 0.01 | 0.01 | 62 | 1011.9 |
| 20260904205025 | 87 | 286 | 2.0 | 6.0 | 0.00 | 0.01 | 0.01 | 62 | 1011.9 |
| 20260904204505 | 88 | 286 | 2.0 | 6.0 | 0.00 | 0.01 | 0.01 | 62 | 1012.0 |
| 20260904204025 | 88 | 286 | 2.0 | 8.0 | 0.00 | 0.01 | 0.01 | 62 | 1012.0 |
| 20260904203504 | 88 | 288 | 3.0 | 8.0 | 0.00 | 0.01 | 0.01 | 60 | 1012.4 |
| 20260904203025 | 89 | 288 | 2.0 | 7.0 | 0.00 | 0.01 | 0.01 | 59 | 1012.3 |
| 20260904202525 | 89 | 280 | 3.0 | 9.0 | 0.00 | 0.01 | 0.01 | 59 | 1012.4 |
| 20260904202004 | 90 | 276 | 3.0 | 11.0 | 0.00 | 0.01 | 0.01 | 57 | 1012.2 |
| 20260904201526 | 90 | 274 | 3.0 | 11.0 | 0.00 | 0.01 | 0.01 | 57 | 1012.2 |
| 20260904201004 | 91 | 273 | 2.0 | 7.0 | 0.00 | 0.01 | 0.01 | 56 | 1011.9 |
| 20260904200504 | 91 | 271 | 2.0 | 4.0 | 0.00 | 0.01 | 0.01 | 55 | 1011.7 |
| 20260904200025 | 91 | 271 | 2.0 | 6.0 | 0.00 | 0.01 | 0.01 | 57 | 1011.6 |
| 20260904195525 | 91 | 264 | 3.0 | 9.0 | 0.00 | 0.01 | 0.01 | 57 | 1011.8 |
| 20260904195025 | 91 | 269 | 3.0 | 9.0 | 0.00 | 0.01 | 0.01 | 56 | 1012.0 |
| 20260904194504 | 91 | 273 | 3.0 | 10.0 | 0.00 | 0.01 | 0.01 | 56 | 1012.1 |
| 20260904194026 | 92 | 292 | 2.0 | 10.0 | 0.00 | 0.01 | 0.01 | 54 | 1012.1 |
| 20260904193505 | 92 | 322 | 2.0 | 7.0 | 0.00 | 0.01 | 0.01 | 56 | 1012.0 |
| 20260904193005 | 92 | 319 | 2.0 | 8.0 | 0.00 | 0.01 | 0.01 | 56 | 1012.0 |
| 20260904192525 | 92 | 323 | 2.0 | 8.0 | 0.00 | 0.01 | 0.01 | 53 | 1012.1 |
| 20260904192005 | 92 | 343 | 2.0 | 7.0 | 0.00 | 0.01 | 0.01 | 53 | 1012.1 |
| 20260904191504 | 92 | 331 | 3.0 | 8.0 | 0.00 | 0.01 | 0.01 | 53 | 1012.2 |
| 20260904191025 | 92 | 313 | 3.0 | 8.0 | 0.00 | 0.01 | 0.01 | 53 | 1012.3 |
| 20260904190505 | 93 | 310 | 3.0 | 8.0 | 0.00 | 0.01 | 0.01 | 53 | 1012.3 |
| 20260904190025 | 93 | 302 | 2.0 | 7.0 | 0.00 | 0.01 | 0.01 | 54 | 1012.3 |
| 20260904185525 | 93 | 284 | 2.0 | 6.0 | 0.00 | 0.01 | 0.01 | 55 | 1012.3 |
| 20260904185025 | 92 | 271 | 3.0 | 11.0 | 0.00 | 0.01 | 0.01 | 54 | 1012.4 |
| 20260904184504 | 92 | 273 | 3.0 | 11.0 | 0.00 | 0.01 | 0.01 | 52 | 1012.6 |
| 20260904184004 | 93 | 284 | 2.0 | 9.0 | 0.00 | 0.01 | 0.01 | 53 | 1012.6 |
| 20260904183525 | 93 | 297 | 2.0 | 8.0 | 0.00 | 0.01 | 0.01 | 51 | 1012.7 |
| 20260904183004 | 93 | 336 | 2.0 | 7.0 | 0.00 | 0.01 | 0.01 | 52 | 1012.6 |
| 20260904182525 | 93 | 345 | 2.0 | 7.0 | 0.00 | 0.01 | 0.01 | 51 | 1012.7 |
| 20260904182003 | 92 | 303 | 3.0 | 12.0 | 0.00 | 0.01 | 0.01 | 55 | 1012.8 |
| 20260904181504 | 92 | 300 | 3.0 | 12.0 | 0.00 | 0.01 | 0.01 | 53 | 1012.8 |
| 20260904181026 | 92 | 302 | 2.0 | 7.0 | 0.00 | 0.01 | 0.01 | 54 | 1012.8 |
| 20260904180526 | 92 | 295 | 3.0 | 8.0 | 0.00 | 0.01 | 0.01 | 55 | 1012.8 |
| 20260904180004 | 91 | 297 | 3.0 | 8.0 | 0.00 | 0.01 | 0.01 | 54 | 1012.7 |
| 20260904175525 | 91 | 299 | 2.0 | 9.0 | 0.00 | 0.01 | 0.01 | 54 | 1012.7 |
| 20260904175025 | 91 | 287 | 2.0 | 9.0 | 0.00 | 0.01 | 0.01 | 55 | 1012.7 |
| 20260904174525 | 91 | 255 | 2.0 | 5.0 | 0.00 | 0.01 | 0.01 | 56 | 1012.8 |
| 20260904174025 | 90 | 269 | 2.0 | 8.0 | 0.00 | 0.01 | 0.01 | 56 | 1012.8 |
| 20260904173504 | 90 | 263 | 3.0 | 9.0 | 0.00 | 0.01 | 0.01 | 57 | 1012.9 |
| 20260904173025 | 89 | 251 | 3.0 | 10.0 | 0.00 | 0.01 | 0.01 | 57 | 1013.0 |
| 20260904172525 | 90 | 248 | 3.0 | 10.0 | 0.00 | 0.01 | 0.01 | 58 | 1013.0 |
| 20260904172026 | 89 | 258 | 3.0 | 10.0 | 0.00 | 0.01 | 0.01 | 59 | 1013.0 |
| 20260904171525 | 89 | 255 | 3.0 | 10.0 | 0.00 | 0.01 | 0.01 | 59 | 1013.0 |
| 20260904171025 | 89 | 237 | 3.0 | 12.0 | 0.00 | 0.01 | 0.01 | 60 | 1013.1 |
| 20260904170504 | 89 | 264 | 3.0 | 12.0 | 0.00 | 0.01 | 0.01 | 60 | 1013.2 |
| 20260904170026 | 89 | 295 | 3.0 | 9.0 | 0.00 | 0.01 | 0.01 | 60 | 1013.2 |
| 20260904165504 | 89 | 301 | 3.0 | 9.0 | 0.00 | 0.01 | 0.01 | 62 | 1013.3 |
| 20260904165026 | 89 | 306 | 3.0 | 9.0 | 0.00 | 0.01 | 0.01 | 61 | 1013.4 |
| 20260904164504 | 89 | 287 | 3.0 | 10.0 | 0.00 | 0.01 | 0.01 | 61 | 1013.4 |
| 20260904164004 | 89 | 262 | 3.0 | 10.0 | 0.00 | 0.01 | 0.01 | 63 | 1013.4 |
| 20260904163504 | 90 | 287 | 2.0 | 7.0 | 0.00 | 0.01 | 0.01 | 60 | 1013.6 |
| 20260904163025 | 90 | 274 | 2.0 | 7.0 | 0.00 | 0.01 | 0.01 | 60 | 1013.6 |
| 20260904162504 | 89 | 266 | 2.0 | 7.0 | 0.00 | 0.01 | 0.01 | 62 | 1013.7 |
| 20260904162025 | 89 | 308 | 2.0 | 4.0 | 0.00 | 0.01 | 0.01 | 63 | 1013.8 |
| 20260904161525 | 89 | 308 | 3.0 | 8.0 | 0.00 | 0.01 | 0.01 | 62 | 1013.7 |
| 20260904161005 | 89 | 291 | 2.0 | 8.0 | 0.00 | 0.01 | 0.01 | 60 | 1013.7 |
| 20260904160504 | 89 | 280 | 2.0 | 9.0 | 0.00 | 0.01 | 0.01 | 60 | 1013.7 |
| 20260904160004 | 89 | 298 | 3.0 | 9.0 | 0.00 | 0.01 | 0.01 | 61 | 1013.7 |
| 20260904155526 | 89 | 299 | 2.0 | 7.0 | 0.00 | 0.01 | 0.01 | 63 | 1013.8 |
| 20260904155025 | 88 | 289 | 2.0 | 5.0 | 0.00 | 0.01 | 0.01 | 62 | 1013.9 |
| 20260904154504 | 88 | 265 | 2.0 | 10.0 | 0.00 | 0.01 | 0.01 | 62 | 1014.0 |
| 20260904154003 | 88 | 275 | 2.0 | 10.0 | 0.00 | 0.01 | 0.01 | 62 | 1014.0 |
| 20260904153525 | 88 | 302 | 2.0 | 4.0 | 0.00 | 0.01 | 0.01 | 64 | 1014.0 |
| 20260904153025 | 88 | 266 | 2.0 | 7.0 | 0.00 | 0.01 | 0.01 | 65 | 1014.0 |
| 20260904152504 | 88 | 279 | 2.0 | 7.0 | 0.00 | 0.01 | 0.01 | 64 | 1014.0 |
| 20260904152005 | 88 | 324 | 2.0 | 5.0 | 0.00 | 0.01 | 0.01 | 65 | 1014.1 |
| 20260904151525 | 87 | 334 | 2.0 | 5.0 | 0.00 | 0.01 | 0.01 | 65 | 1014.0 |
| 20260904151004 | 86 | 323 | 3.0 | 7.0 | 0.00 | 0.01 | 0.01 | 66 | 1013.9 |
| 20260904150526 | 86 | 320 | 3.0 | 7.0 | 0.00 | 0.01 | 0.01 | 66 | 1013.9 |
| 20260904150025 | 86 | 314 | 2.0 | 6.0 | 0.00 | 0.01 | 0.01 | 65 | 1014.0 |
| 20260904145525 | 87 | 340 | 2.0 | 8.0 | 0.00 | 0.01 | 0.01 | 66 | 1014.2 |
| 20260904145004 | 86 | 352 | 2.0 | 8.0 | 0.00 | 0.01 | 0.01 | 66 | 1014.1 |
| 20260904144526 | 86 | 332 | 2.0 | 4.0 | 0.00 | 0.01 | 0.01 | 67 | 1014.1 |
| 20260904144025 | 86 | 338 | 2.0 | 5.0 | 0.00 | 0.01 | 0.01 | 67 | 1014.1 |
| 20260904143525 | 86 | 345 | 2.0 | 5.0 | 0.00 | 0.01 | 0.01 | 68 | 1014.1 |
| 20260904143025 | 86 | 336 | 2.0 | 5.0 | 0.00 | 0.01 | 0.01 | 66 | 1014.1 |
| 20260904142504 | 86 | 341 | 1.0 | 4.0 | 0.00 | 0.01 | 0.01 | 69 | 1014.1 |
| 20260904142024 | 85 | 353 | 1.0 | 7.0 | 0.00 | 0.01 | 0.01 | 71 | 1014.1 |
| 20260904141526 | 84 | 348 | 2.0 | 7.0 | 0.00 | 0.01 | 0.01 | 71 | 1014.0 |
| 20260904141025 | 84 | 334 | 2.0 | 7.0 | 0.00 | 0.01 | 0.01 | 72 | 1013.9 |
| 20260904140504 | 83 | 331 | 3.0 | 8.0 | 0.00 | 0.01 | 0.01 | 73 | 1013.9 |
| 20260904140005 | 82 | 329 | 2.0 | 11.0 | 0.00 | 0.01 | 0.01 | 75 | 1014.0 |
| 20260904135525 | 82 | 328 | 2.0 | 11.0 | 0.00 | 0.01 | 0.01 | 76 | 1014.0 |
| 20260904135025 | 82 | 308 | 1.0 | 7.0 | 0.00 | 0.01 | 0.01 | 81 | 1014.1 |
| 20260904134524 | 80 | 298 | 2.0 | 7.0 | 0.00 | 0.01 | 0.01 | 81 | 1014.1 |
| 20260904134026 | 80 | 301 | 1.0 | 5.0 | 0.00 | 0.01 | 0.01 | 82 | 1014.1 |
| 20260904133505 | 80 | 309 | 1.0 | 3.0 | 0.00 | 0.01 | 0.01 | 85 | 1014.1 |
| 20260904133005 | 79 | 309 | 1.0 | 4.0 | 0.00 | 0.01 | 0.01 | 89 | 1014.0 |
| 20260904132504 | 78 | 305 | 1.0 | 4.0 | 0.00 | 0.01 | 0.01 | 91 | 1014.0 |
| 20260904132025 | 77 | 306 | 1.0 | 4.0 | 0.00 | 0.01 | 0.01 | 92 | 1014.0 |
| 20260904131525 | 77 | 305 | 1.0 | 3.0 | 0.00 | 0.01 | 0.01 | 93 | 1013.9 |
| 20260904131024 | 76 | 305 | 1.0 | 3.0 | 0.00 | 0.01 | 0.01 | 94 | 1013.9 |
| 20260904130505 | 76 | 314 | 0.0 | 2.0 | 0.00 | 0.01 | 0.01 | 95 | 1013.9 |
| 20260904130025 | 76 | 0 | 0.0 | 0.0 | 0.00 | 0.01 | 0.01 | 95 | 1013.9 |
| 20260904125504 | 76 | 323 | 0.0 | 1.0 | 0.00 | 0.01 | 0.01 | 95 | 1013.8 |
| 20260904125025 | 75 | 304 | 0.0 | 4.0 | 0.00 | 0.01 | 0.01 | 96 | 1014.0 |
| 20260904124525 | 74 | 303 | 1.0 | 4.0 | 0.00 | 0.01 | 0.01 | 96 | 1014.0 |
| 20260904124026 | 74 | 288 | 1.0 | 6.0 | 0.00 | 0.01 | 0.01 | 96 | 1014.0 |
| 20260904123524 | 73 | 267 | 2.0 | 6.0 | 0.00 | 0.01 | 0.01 | 96 | 1014.2 |
| 20260904123005 | 73 | 263 | 2.0 | 6.0 | 0.00 | 0.01 | 0.01 | 96 | 1014.1 |
| 20260904122503 | 73 | 259 | 2.0 | 6.0 | 0.00 | 0.01 | 0.01 | 96 | 1014.3 |
| 20260904122004 | 72 | 264 | 2.0 | 5.0 | 0.00 | 0.01 | 0.01 | 96 | 1014.2 |
| 20260904121504 | 72 | 267 | 2.0 | 6.0 | 0.00 | 0.01 | 0.01 | 96 | 1014.1 |
| 20260904121004 | 72 | 262 | 1.0 | 6.0 | 0.00 | 0.01 | 0.01 | 96 | 1014.0 |
| 20260904120525 | 72 | 272 | 1.0 | 3.0 | 0.00 | 0.01 | 0.01 | 96 | 1014.2 |
| 20260904120005 | 72 | 266 | 1.0 | 3.0 | 0.00 | 0.01 | 0.01 | 96 | 1014.1 |
| 20260904115504 | 72 | 249 | 0.0 | 2.0 | 0.00 | 0.01 | 0.01 | 96 | 1014.0 |
| 20260904115024 | 71 | 237 | 0.0 | 2.0 | 0.00 | 0.01 | 0.01 | 96 | 1014.0 |
| 20260904114504 | 71 | 225 | 0.0 | 2.0 | 0.00 | 0.01 | 0.01 | 96 | 1014.0 |
| 20260904114004 | 71 | 212 | 0.0 | 2.0 | 0.00 | 0.01 | 0.01 | 96 | 1014.0 |
| 20260904113504 | 71 | 208 | 0.0 | 2.0 | 0.00 | 0.01 | 0.01 | 96 | 1014.0 |
| 20260904113025 | 71 | 196 | 0.0 | 2.0 | 0.00 | 0.01 | 0.01 | 95 | 1014.0 |
| 20260904112504 | 71 | 179 | 0.0 | 2.0 | 0.00 | 0.01 | 0.01 | 95 | 1014.0 |
| 20260904112025 | 71 | 143 | 0.0 | 2.0 | 0.00 | 0.01 | 0.01 | 95 | 1014.0 |
| 20260904111525 | 71 | 187 | 1.0 | 4.0 | 0.00 | 0.01 | 0.01 | 95 | 1013.8 |
| 20260904111004 | 71 | 198 | 1.0 | 4.0 | 0.00 | 0.01 | 0.01 | 95 | 1013.7 |
| 20260904110505 | 71 | 198 | 2.0 | 4.0 | 0.00 | 0.01 | 0.01 | 95 | 1013.5 |
| 20260904110004 | 71 | 214 | 2.0 | 4.0 | 0.00 | 0.01 | 0.01 | 95 | 1013.7 |
| 20260904105525 | 71 | 215 | 1.0 | 3.0 | 0.00 | 0.01 | 0.01 | 95 | 1013.8 |
| 20260904105025 | 71 | 185 | 0.0 | 2.0 | 0.00 | 0.01 | 0.01 | 95 | 1013.5 |
| 20260904104504 | 71 | 201 | 1.0 | 2.0 | 0.00 | 0.01 | 0.01 | 95 | 1013.4 |
| 20260904104024 | 71 | 203 | 1.0 | 2.0 | 0.00 | 0.01 | 0.01 | 95 | 1013.4 |
| 20260904103505 | 71 | 0 | 0.0 | 0.0 | 0.00 | 0.01 | 0.01 | 95 | 1013.4 |
| 20260904103003 | 71 | 0 | 0.0 | 0.0 | 0.00 | 0.01 | 0.01 | 95 | 1013.4 |
| 20260904102504 | 71 | 0 | 0.0 | 0.0 | 0.00 | 0.01 | 0.01 | 95 | 1013.4 |
| 20260904102004 | 71 | 0 | 0.0 | 0.0 | 0.00 | 0.01 | 0.01 | 95 | 1013.5 |
| 20260904101525 | 71 | 9 | 0.0 | 2.0 | 0.00 | 0.01 | 0.01 | 95 | 1013.5 |
| 20260904101025 | 71 | 357 | 1.0 | 3.0 | 0.00 | 0.01 | 0.01 | 95 | 1013.5 |
| 20260904100526 | 71 | 327 | 1.0 | 3.0 | 0.00 | 0.01 | 0.01 | 95 | 1013.7 |
| 20260904100025 | 71 | 316 | 1.0 | 3.0 | 0.00 | 0.01 | 0.01 | 95 | 1013.8 |
| 20260904095503 | 71 | 289 | 1.0 | 3.0 | 0.00 | 0.01 | 0.01 | 95 | 1013.9 |
| 20260904095025 | 71 | 242 | 1.0 | 3.0 | 0.00 | 0.01 | 0.01 | 95 | 1013.7 |
| 20260904094525 | 71 | 174 | 0.0 | 2.0 | 0.00 | 0.01 | 0.01 | 95 | 1013.5 |
| 20260904094004 | 71 | 0 | 0.0 | 0.0 | 0.00 | 0.01 | 0.01 | 95 | 1013.2 |
| 20260904093525 | 71 | 0 | 0.0 | 0.0 | 0.00 | 0.01 | 0.01 | 95 | 1013.1 |
| 20260904093005 | 71 | 0 | 0.0 | 0.0 | 0.00 | 0.01 | 0.01 | 95 | 1013.0 |
| 20260904092525 | 71 | 0 | 0.0 | 0.0 | 0.00 | 0.01 | 0.01 | 95 | 1013.1 |
| 20260904092026 | 71 | 0 | 0.0 | 0.0 | 0.00 | 0.01 | 0.01 | 95 | 1012.9 |
| 20260904091504 | 71 | 0 | 0.0 | 0.0 | 0.00 | 0.01 | 0.01 | 95 | 1012.9 |
| 20260904091006 | 71 | 0 | 0.0 | 0.0 | 0.00 | 0.01 | 0.01 | 95 | 1012.9 |
| 20260904090504 | 71 | 0 | 0.0 | 0.0 | 0.00 | 0.01 | 0.01 | 95 | 1013.0 |
| 20260904090004 | 71 | 174 | 0.0 | 1.0 | 0.00 | 0.01 | 0.01 | 95 | 1012.9 |
| 20260904085525 | 71 | 174 | 0.0 | 2.0 | 0.00 | 0.01 | 0.01 | 95 | 1012.9 |
| 20260904085025 | 71 | 174 | 0.0 | 2.0 | 0.00 | 0.01 | 0.01 | 95 | 1012.9 |
| 20260904084526 | 71 | 152 | 1.0 | 2.0 | 0.00 | 0.01 | 0.01 | 95 | 1012.8 |
| 20260904084025 | 71 | 164 | 1.0 | 3.0 | 0.00 | 0.01 | 0.01 | 95 | 1012.9 |
| 20260904083503 | 71 | 185 | 1.0 | 3.0 | 0.00 | 0.01 | 0.01 | 95 | 1013.0 |
| 20260904083004 | 71 | 184 | 0.0 | 3.0 | 0.00 | 0.01 | 0.01 | 95 | 1013.0 |
| 20260904082526 | 71 | 186 | 0.0 | 1.0 | 0.00 | 0.01 | 0.01 | 95 | 1013.1 |
| 20260904082004 | 71 | 175 | 0.0 | 2.0 | 0.00 | 0.01 | 0.01 | 94 | 1013.1 |
| 20260904081503 | 71 | 175 | 0.0 | 2.0 | 0.00 | 0.01 | 0.01 | 94 | 1013.2 |
| 20260904081025 | 72 | 199 | 1.0 | 3.0 | 0.00 | 0.01 | 0.01 | 95 | 1013.1 |
| 20260904080525 | 72 | 208 | 1.0 | 3.0 | 0.00 | 0.01 | 0.01 | 95 | 1013.3 |
| 20260904080004 | 72 | 201 | 1.0 | 3.0 | 0.00 | 0.01 | 0.01 | 95 | 1013.3 |
| 20260904075505 | 72 | 187 | 1.0 | 3.0 | 0.00 | 0.01 | 0.01 | 95 | 1013.4 |
| 20260904075025 | 72 | 181 | 1.0 | 3.0 | 0.00 | 0.01 | 0.01 | 95 | 1013.4 |
| 20260904074525 | 72 | 191 | 1.0 | 3.0 | 0.00 | 0.01 | 0.01 | 94 | 1013.5 |
| 20260904074004 | 72 | 182 | 1.0 | 2.0 | 0.00 | 0.01 | 0.01 | 94 | 1013.6 |
| 20260904073525 | 72 | 155 | 0.0 | 2.0 | 0.00 | 0.01 | 0.01 | 94 | 1013.6 |
| 20260904073004 | 72 | 116 | 0.0 | 1.0 | 0.00 | 0.01 | 0.01 | 94 | 1013.5 |
| 20260904072524 | 72 | 113 | 0.0 | 3.0 | 0.00 | 0.01 | 0.01 | 94 | 1013.5 |
| 20260904072004 | 72 | 107 | 0.0 | 3.0 | 0.00 | 0.01 | 0.01 | 94 | 1013.5 |
| 20260904071524 | 72 | 105 | 1.0 | 2.0 | 0.00 | 0.01 | 0.01 | 94 | 1013.4 |
| 20260904071004 | 72 | 102 | 1.0 | 2.0 | 0.00 | 0.01 | 0.01 | 94 | 1013.3 |
| 20260904070503 | 72 | 94 | 1.0 | 4.0 | 0.00 | 0.01 | 0.01 | 94 | 1013.4 |
| 20260904070005 | 72 | 102 | 1.0 | 4.0 | 0.00 | 0.01 | 0.01 | 94 | 1013.2 |
| 20260904065525 | 72 | 184 | 0.0 | 2.0 | 0.00 | 0.01 | 0.01 | 94 | 1013.2 |
| 20260904065003 | 72 | 193 | 1.0 | 3.0 | 0.00 | 0.01 | 0.01 | 94 | 1013.2 |
| 20260904064525 | 72 | 189 | 1.0 | 4.0 | 0.00 | 0.01 | 0.01 | 94 | 1013.2 |
| 20260904064003 | 72 | 191 | 0.0 | 4.0 | 0.00 | 0.01 | 0.01 | 94 | 1013.3 |
| 20260904063525 | 72 | 170 | 0.0 | 2.0 | 0.00 | 0.01 | 0.01 | 94 | 1013.2 |
| 20260904063003 | 72 | 170 | 0.0 | 2.0 | 0.00 | 0.01 | 0.01 | 94 | 1013.2 |
| 20260904062526 | 72 | 118 | 0.0 | 2.0 | 0.00 | 0.01 | 0.01 | 93 | 1013.3 |
| 20260904062003 | 72 | 134 | 0.0 | 2.0 | 0.00 | 0.01 | 0.01 | 93 | 1013.2 |
| 20260904061525 | 72 | 248 | 0.0 | 2.0 | 0.00 | 0.01 | 0.01 | 93 | 1013.3 |
| 20260904061025 | 72 | 228 | 1.0 | 2.0 | 0.00 | 0.01 | 0.01 | 93 | 1013.3 |
| 20260904060503 | 73 | 209 | 1.0 | 3.0 | 0.00 | 0.01 | 0.01 | 92 | 1013.1 |
| 20260904060004 | 73 | 207 | 0.0 | 3.0 | 0.00 | 0.01 | 0.01 | 92 | 1012.7 |
| 20260904055503 | 73 | 0 | 0.0 | 0.0 | 0.00 | 0.01 | 0.01 | 92 | 1012.6 |
| 20260904055004 | 73 | 0 | 0.0 | 0.0 | 0.00 | 0.01 | 0.01 | 92 | 1012.4 |
| 20260904054504 | 73 | 304 | 0.0 | 1.0 | 0.00 | 0.01 | 0.01 | 92 | 1012.3 |
| 20260904054025 | 73 | 258 | 1.0 | 2.0 | 0.00 | 0.01 | 0.01 | 92 | 1012.2 |
| 20260904053525 | 73 | 246 | 1.0 | 4.0 | 0.00 | 0.01 | 0.01 | 92 | 1012.2 |
| 20260904053003 | 73 | 189 | 2.0 | 9.0 | 0.00 | 0.01 | 0.01 | 92 | 1012.3 |
| 20260904052505 | 73 | 163 | 2.0 | 9.0 | 0.00 | 0.01 | 0.01 | 91 | 1012.3 |
| 20260904052003 | 74 | 166 | 1.0 | 5.0 | 0.01 | 0.01 | 0.01 | 91 | 1012.5 |
| 20260904051504 | 74 | 182 | 2.0 | 8.0 | 0.01 | 0.01 | 0.01 | 90 | 1013.0 |
| 20260904051004 | 74 | 185 | 2.0 | 8.0 | 0.01 | 0.01 | 0.01 | 90 | 1013.3 |
| 20260904050504 | 75 | 155 | 2.0 | 7.0 | 0.01 | 0.01 | 0.01 | 89 | 1013.6 |
| 20260904050005 | 75 | 129 | 1.0 | 3.0 | 0.01 | 0.01 | 0.01 | 88 | 1013.2 |
| 20260904045504 | 76 | 152 | 1.0 | 4.0 | 0.01 | 0.01 | 0.01 | 86 | 1013.9 |
| 20260904045025 | 77 | 159 | 1.0 | 4.0 | 0.01 | 0.01 | 0.01 | 85 | 1014.1 |
| 20260904044525 | 78 | 160 | 1.0 | 4.0 | 0.01 | 0.01 | 0.01 | 84 | 1014.3 |
| 20260904044004 | 79 | 223 | 2.0 | 15.0 | 0.01 | 0.01 | 0.01 | 81 | 1014.2 |
| 20260904043503 | 80 | 259 | 6.0 | 22.0 | 0.01 | 0.01 | 0.01 | 79 | 1014.5 |
| 20260904043025 | 81 | 267 | 8.0 | 22.0 | 0.01 | 0.01 | 0.01 | 75 | 1014.8 |
| 20260904042525 | 81 | 270 | 6.0 | 17.0 | 0.01 | 0.01 | 0.01 | 73 | 1014.5 |
| 20260904042004 | 81 | 253 | 3.0 | 13.0 | 0.00 | 0.00 | 0.00 | 76 | 1014.1 |
| 20260904041504 | 81 | 203 | 1.0 | 4.0 | 0.00 | 0.00 | 0.00 | 75 | 1013.1 |
| 20260904041025 | 81 | 217 | 2.0 | 6.0 | 0.00 | 0.00 | 0.00 | 75 | 1013.0 |
| 20260904040505 | 81 | 256 | 2.0 | 7.0 | 0.00 | 0.00 | 0.00 | 76 | 1013.0 |
| 20260904040024 | 81 | 256 | 3.0 | 7.0 | 0.00 | 0.00 | 0.00 | 77 | 1012.9 |
| 20260904035504 | 81 | 267 | 3.0 | 7.0 | 0.00 | 0.00 | 0.00 | 79 | 1012.6 |
| 20260904035024 | 81 | 291 | 2.0 | 7.0 | 0.00 | 0.00 | 0.00 | 82 | 1012.6 |
| 20260904034504 | 81 | 298 | 2.0 | 6.0 | 0.00 | 0.00 | 0.00 | 84 | 1012.9 |
| 20260904034004 | 81 | 306 | 2.0 | 10.0 | 0.00 | 0.00 | 0.00 | 86 | 1013.1 |
| 20260904033525 | 81 | 324 | 2.0 | 10.0 | 0.00 | 0.00 | 0.00 | 87 | 1013.3 |
| 20260904033004 | 81 | 324 | 1.0 | 4.0 | 0.00 | 0.00 | 0.00 | 87 | 1013.4 |
| 20260904032504 | 81 | 0 | 0.0 | 0.0 | 0.00 | 0.00 | 0.00 | 86 | 1012.9 |
| 20260904032004 | 81 | 194 | 0.0 | 1.0 | 0.00 | 0.00 | 0.00 | 86 | 1013.0 |
| 20260904031503 | 81 | 190 | 0.0 | 3.0 | 0.00 | 0.00 | 0.00 | 86 | 1013.0 |
| 20260904031025 | 81 | 193 | 1.0 | 3.0 | 0.00 | 0.00 | 0.00 | 86 | 1013.1 |
| 20260904030524 | 81 | 194 | 1.0 | 2.0 | 0.00 | 0.00 | 0.00 | 86 | 1013.2 |
| 20260904030026 | 82 | 188 | 0.0 | 2.0 | 0.00 | 0.00 | 0.00 | 86 | 1013.2 |